Location: Béaulencourt
(50.0796°N, 2.8795°E)
Time: 23:09:39
(UTC+00:00)

Cosmos 1821 Rocket - Pass Details

Date: 20 January 2026
Orbit: 943 x 1004 km, 82.9° (Epoch: 17 February)

Event Time Altitude Azimuth Distance (km) Brightness Sun altitude
Rises 06:11:29 0° 179° (S) 3,714 7.3 -13.4°
Reaches altitude 10° 06:14:01 10° 177° (S) 2,765 6.6 -13.0°
Maximum altitude 06:20:19 70° 95° (E) 1,059 4.4 -12.1°
Drops below altitude 10° 06:26:36 10° 14° (NNE) 2,751 6.3 -11.1°
Sets 06:29:07 0° 12° (NNE) 3,694 7.0 -10.7°
